Regional Weather Roundup
Issued by NWS

Home | Current Version | Previous Version | Text Only | Print | Product List | Glossary On
Versions: 1 2 3 4 5 6 7 8 9 10 11 12 13 14 15 16 17 18 19 20 21 22 23 24 25 26 27 28 29 30 31 32 33 34 35 36 37 38 39 40 41 42 43 44 45 46 47 48 49 50
000
ASUS43 KMPX 011401
RWRMN
WEATHER ROUNDUP FOR MINNESOTA
NATIONAL WEATHER SERVICE TWIN CITIES/CHANHASSEN MN
900 AM CDT MON SEP 01 2014


NOTE: "FAIR" INDICATES FEW OR NO CLOUDS BELOW 12,000 FEET WITH NO
SIGNIFICANT WEATHER AND/OR OBSTRUCTIONS TO VISIBILITY. N/A MEANS
CURRENT SKY AND/OR WEATHER CONDITIONS ARE NOT AVAILABLE.

MNZ060>063-068>070-011500-
   Twin Cities Metro

CITY           SKY/WX    TMP DP  RH WIND       PRES   REMARKS
TWIN CITIES    PTSUNNY   68  65  90 W6        29.66R
ST PAUL        PTSUNNY   68  63  84 SW5       29.66R
CRYSTAL        PTSUNNY   69  63  81 CALM      29.64R
BLAINE         PTSUNNY   68  66  94 CALM      29.66R
LAKEVILLE      LGT RAIN  64  64 100 CALM      29.67S
EDEN PRAIRIE   CLOUDY    70  66  88 NW5       29.66R
SOUTH ST PAUL  MOSUNNY   69  64  82 SW5       29.66R
LAKE ELMO      FAIR      68  64  88 W8        29.67R
$$
MNZ001>005-007-008-013>017-022>024-027-028-011500-
   Northwest Minnesota

CITY           SKY/WX    TMP DP  RH WIND       PRES   REMARKS
BEMIDJI        MOSUNNY   59  56  88 W12       29.68S
HALLOCK        SUNNY     55  55 100 S5        29.68S
ROSEAU         MOSUNNY   61  55  82 W8        29.67R
WARROAD        PTSUNNY   59  55  88 W8        29.66S
THIEF RVR FALL PTSUNNY   55  54  94 NW5       29.70S
CROOKSTON      FOG       55  55 100 N3        29.71S VSB 1/4
FOSSTON        PTSUNNY   57  55  94 W9        29.71S
DETROIT LAKES  FOG       55  55 100 NW12      29.73S VSB 1/2
MOORHEAD       SUNNY     61  61 100 CALM      29.73R
PARK RAPIDS    PTSUNNY   61  57  87 NW12      29.69R
MAHNOMEN       FOG       56  56 100 NW5       29.71R VSB 1/2
$$
MNZ006-009>011-018-025>026-011500-
   North Central Minnesota

CITY           SKY/WX    TMP DP  RH WIND       PRES   REMARKS
BAUDETTE       CLOUDY    59  55  87 W6        29.64R
FLAG ISLAND    CLOUDY    59  54  82 NW18      29.62R
INTL FALLS     CLOUDY    60  58  92 W8        29.61R
WASKISH        CLOUDY    61  55  82 W13G20    29.65S
BIG FORK       PTSUNNY   61  55  82 W3        29.64S
LONGVILLE      PTSUNNY   59  57  94 W7        29.66R
GRAND RAPIDS   CLOUDY    61  55  82 NW14      29.64S
CRANE LAKE     CLOUDY    57  57 100 CALM      29.61R FOG
ORR            RAIN      59  55  88 W9        29.59S
COOK           CLOUDY    59  57  94 W12       29.62R
WALKER         CLOUDY    58  56  94 NW7       29.67S
$$
MNZ012-019>021-037-011500-
   Northeast Minnesota

CITY           SKY/WX    TMP DP  RH WIND       PRES   REMARKS
DULUTH         CLOUDY    62  58  86 NW10      29.62S
ELY            CLOUDY    59  57  94 W7        29.59F
HIBBING        CLOUDY    61  56  83 NW9       29.62R
EVELETH        CLOUDY    59  55  88 W3        29.63R
DULUTH HARBOR  CLOUDY    64  63  94 NW12      29.60F
TWO HARBORS    CLOUDY    61  55  82 W6        29.59R
SILVER BAY     CLOUDY    61  61 100 CALM      29.57S
GRAND MARAIS     N/A     62  61  96 VRB5      29.55R
G MARAIS ARPRT LGT RAIN  59  55  88 SW3       29.59R
$$
MNZ029>031-032-039>041-046>048-054>057-064-011500-
   West Central Minnesota

CITY           SKY/WX    TMP DP  RH WIND       PRES   REMARKS
FERGUS FALLS   SUNNY     59  57  94 NW6       29.72S
WHEATON        SUNNY     61  55  82 NW7       29.75R
MORRIS         SUNNY     63  57  82 NW13      29.71S
ALEXANDRIA     SUNNY     64  59  83 NW8       29.72R
ELBOW LAKE     FAIR      58  56  92 NW7       29.72S
WADENA         PTSUNNY   61  57  88 NW13      29.70R
GLENWOOD       SUNNY     64  59  82 NW12      29.72R
APPLETON       SUNNY     64  57  77 NW9       29.72R
BENSON         SUNNY     63  59  88 N7        29.72R
ORTONVILLE     SUNNY     64  57  77 NW9       29.73R
MADISON        SUNNY     66  61  82 NW5       29.73R
WILLMAR        FAIR      64  61  88 NW8       29.72R
$$
MNZ033>034-036-042>043-049>051-058-059-011500-
   Central Minnesota

CITY           SKY/WX    TMP DP  RH WIND       PRES   REMARKS
ST CLOUD       MOSUNNY   66  61  84 NW6       29.67R
SAUK CENTRE    FAIR      64  59  82 NW7       29.70R
PAYNESVILLE    SUNNY     63  60  92 W5        29.70R
AITKIN         PTSUNNY   64  57  77 W3        29.64R
PINE RIVER     CLOUDY    61  57  88 NW7       29.71S
BRAINERD       MOSUNNY   62  57  83 NW15      29.67R
STAPLES        MOSUNNY   61  55  82 NW13      29.69R
LONG PRAIRIE   FAIR      63  59  88 NW6       29.69S
LITTLE FALLS   MOSUNNY   63  59  88 NW7       29.67S
LITCHFIELD     MOSUNNY   66  64  94 W7        29.70R
BUFFALO        PTSUNNY   65  62  88 W5        29.68R
MAPLE LAKE     PTSUNNY   66  64  91 W7        29.68R
$$
MNZ037-044-045-052-053-011500-
   East Central Minnesota

CITY           SKY/WX    TMP DP  RH WIND       PRES   REMARKS
PRINCETON      MOSUNNY   64  63  94 W5        29.65R
MORA           CLOUDY    61  61 100 NW5       29.66R
CAMBRIDGE      PTSUNNY   68  59  73 W5        29.64R
RUSH CITY      MOSUNNY   65  63  94 CALM      29.65R
MOOSE LAKE     CLOUDY    63  59  88 CALM      29.62R
HINCKLEY       CLOUDY    66  63  88 NW3       29.64R
CLOQUET        CLOUDY    63  59  88 NW7       29.62S
MCGREGOR       CLOUDY    61  59  94 NW8       29.65R
$$
MNZ071>073-080-081-089-090-097-098-011500-
   Southwest Minnesota

CITY           SKY/WX    TMP DP  RH WIND       PRES   REMARKS
MONTEVIDEO     SUNNY     66  64  94 N7        29.73R
GRANITE FALLS  SUNNY     63  62  97 CALM      29.74R FOG
CANBY          SUNNY     66  61  81 NW9       29.75R
MARSHALL       MOSUNNY   63  57  82 NW7       29.73R
REDWOOD FALLS  CLOUDY    64  63  96 W7        29.72R
OLIVIA         PTSUNNY   64  61  88 NW7       29.71R
PIPESTONE      CLOUDY    61  61 100 NW9       29.78R FOG
WINDOM         PTSUNNY   64  61  88 NW8       29.74R
WORTHINGTON    PTSUNNY   64  61  88 W9        29.78R
JACKSON        PTSUNNY   64  61  88 W7        29.75R
TRACY          PTSUNNY   67  63  87 NW8       29.75R
SLAYTON        PTSUNNY   63  61  94 CALM      29.77R
$$
MNZ065>067-074>077-082>085-091>093-011500-
   South Central Minnesota

CITY           SKY/WX    TMP DP  RH WIND       PRES   REMARKS
MANKATO        CLOUDY    64  59  82 W8        29.70R
NEW ULM        MOSUNNY   64  64 100 NW9       29.71R
ST JAMES       CLOUDY    66  63  88 W5        29.73R
FAIRMONT       PTSUNNY   64  61  88 W5        29.73R
GLENCOE        PTSUNNY   67  63  85 W8        29.68R
FARIBAULT      CLOUDY    70  63  78 S5        29.69R
OWATONNA       PTSUNNY   66  63  88 SW3       29.70R
WASECA         PTSUNNY   63  59  88 SW5       29.72R
ALBERT LEA     PTSUNNY   68  64  88 NW5       29.70R
$$
MNZ078>079-086>088-094>096-011500-
   Southeast Minnesota

CITY           SKY/WX    TMP DP  RH WIND       PRES   REMARKS
ROCHESTER      CLOUDY    67  64  90 W6        29.70S
RED WING       PTSUNNY   68  66  94 W6        29.65R
STANTON        MOSUNNY   69  64  85 SW6       29.66S
DODGE CENTER   PTSUNNY   66  64  94 W6        29.69S
WINONA         CLOUDY    68  64  88 SW6       29.67S
AUSTIN         CLOUDY    66  64  94 NW7       29.69S
PRESTON        CLOUDY    64  64 100 CALM      29.69F FOG
$$
ABBREVIATIONS USED IN REMARKS
   TC - TEMPERATURES IN CELSIUS
  WCI - WIND CHILL INDEX
   HX - HEAT INDEX
  VSB - VISIBILITY
$$



USA.gov is the U.S. government's official web portal to all federal, state and local government web resources and services.